(675) Ludmilla

Orbital Elements

The following orbital elements are taken from MPO 12096
  (675) Ludmilla
Epoch 2002 May 6.0 TT = JDT 2452400.5                   Goffin
M  66.91430              (2000.0)            P               Q
n   0.21399781     Peri.  152.27385     +0.55638847     -0.81351834
a   2.7681938      Node   263.45298     +0.72736971     +0.57527555
e   0.2047012      Incl.    9.80435     +0.40170285     +0.08512315
P   4.61           H    7.91          G   0.15           U   0
From 320 observations at 43 oppositions, 1908-2000, mean residual 0".53.
An explanation of the orbital elements is available.

These orbital elements are also available in forms suitable for loading into a number of popular planetarium-type software programs.


Ephemeris

The following ephemeris is at intervals of five days. A daily ephemeris covering the same time interval is also available.

Date    TT    R. A. (2000) Decl.     Delta      r     Elong.  Phase     V
2001 12 07    08 27.40   +13 12.1    1.607    2.352   128.8    19.1    11.8
2001 12 12    08 26.17   +12 45.6    1.569    2.361   133.9    17.5    11.7
2001 12 17    08 24.16   +12 21.7    1.535    2.370   139.3    15.7    11.6
2001 12 22    08 21.40   +12 00.7    1.507    2.379   144.7    13.8    11.5
2001 12 27    08 17.95   +11 42.6    1.483    2.388   150.3    11.8    11.4
2002 01 01    08 13.93   +11 27.6    1.465    2.397   155.9     9.6    11.3
2002 01 06    08 09.43   +11 15.6    1.454    2.406   161.3     7.5    11.2
2002 01 11    08 04.59   +11 06.6    1.449    2.415   166.3     5.5    11.1
2002 01 16    07 59.58   +11 00.5    1.451    2.425   169.8     4.1    11.0
2002 01 21    07 54.56   +10 57.1    1.459    2.435   170.1     4.0    11.0
2002 01 26    07 49.72   +10 56.0    1.475    2.444   167.0     5.2    11.1
2002 01 31    07 45.20   +10 57.0    1.498    2.454   162.2     7.0    11.3
2002 02 05    07 41.13   +10 59.7    1.527    2.464   156.9     9.0    11.4
2002 02 10    07 37.62   +11 03.8    1.562    2.474   151.5    11.0    11.5
2002 02 15    07 34.77   +11 08.8    1.603    2.484   146.1    12.8    11.7
2002 02 20    07 32.63   +11 14.3    1.649    2.495   140.8    14.5    11.8
2002 02 25    07 31.23   +11 20.2    1.700    2.505   135.6    16.1    11.9

Back to Bright Minor Planets

Astronomical Headlines Index

MPC